Regional Weather Roundup
Issued by NWS

Home | Current Version | Previous Version | Text Only | Print | Product List | Glossary On
Versions: 1 2 3 4 5 6 7 8 9 10 11 12 13 14 15 16 17 18 19 20 21 22 23 24 25 26 27 28 29 30 31 32 33 34 35 36 37 38 39 40 41 42 43 44 45 46 47 48 49 50
000
ASHW40 PHFO 230632
RWRHI

WEATHER ROUNDUP FOR HAWAII
NATIONAL WEATHER SERVICE HONOLULU HI
800 PM HST THU JUN 22 2017

THIS IS AN AUTOMATED REPORT THAT HAS NOT BEEN QUALITY CONTROLLED.

NOTE..."FAIR" INDICATES FEW OR NO CLOUDS BELOW 12,000 FEET WITH NO
SIGNIFICANT WEATHER AND/OR OBSTRUCTIONS TO VISIBILITY.

* - THESE SITES REPORT LIMITED FIELDS

HIZ001>004-230700-
KAUAI-NIIHAU-

CITY           SKY/WX    TMP DP  RH WIND       PRES   REMARKS
LIHUE APT      PTCLDY    79  70  74 NE16      29.99R
PORT ALLEN*      N/A     79 N/A N/A NE17        N/A
POIPU*           N/A     79 N/A N/A NE6G12      N/A
PRINCEVILLE*     N/A     75 N/A N/A SE5         N/A
KOKOLE POINT*  NOT AVBL
MOLOAA DAIRY*    N/A     77  68  73 E3G10       N/A
WAIMEA HTS*    NOT AVBL
PUU OPAE*      NOT AVBL
PUU LUA*       NOT AVBL
MAKAHA RIDGE*    N/A     72  63  73 E2G9        N/A
$$

HIZ005>011-230700-
OAHU-

CITY           SKY/WX    TMP DP  RH WIND       PRES   REMARKS
HONOLULU       PTCLDY    78  65  63 NE10      29.96R
KALAELOA       PTCLDY    79  65  62 NE5       29.97R
KANEOHE MCB    MOCLDY    80  71  74 NE9G18    29.94
WHEELER FIELD  FAIR      75  66  71 NE7       29.97R
BELLOWS*         N/A    N/A N/A N/A NE20        N/A
KAHUKU*          N/A    N/A N/A N/A NE6G14      N/A
WHEELER*       NOT AVBL
WAIANAE HARBOR NOT AVBL
DILLINGHAM*      N/A     77  68  73 SW2G12      N/A
KAHUKU TRN*      N/A     75  70  83 W5G15       N/A
KAWAILOA*        N/A     72  66  83 NE12G17     N/A
KII*             N/A     79  70  73 E12G18      N/A
MAKUA RANGE*     N/A     90  75  62 SW8G17      N/A  HX 100
OAHU FOREST NW NOT AVBL
SCHOFIELD BRK*   N/A     81  72  74 MISG        N/A
SCHOFIELD S*   NOT AVBL
WAIANAE VLY*   NOT AVBL
KUAOKALA*      NOT AVBL
HONOULIUULI*   NOT AVBL
MOKUOLOE IS*   NOT AVBL
PALEHUA*       NOT AVBL
WAIAWA PHB*    NOT AVBL
$$

HIZ012>013-230700-
MOLOKAI-

CITY           SKY/WX    TMP DP  RH WIND       PRES   REMARKS
MOLOKAI AIRPT  PTCLDY    77  69  76 NE13      29.97R
KALAUPAPA      NOT AVBL
MAKAPULAPAI*     N/A     79  68  69 E14         N/A
MOLOKAI 1*     NOT AVBL
PUU ALII*        N/A     60  60 100 N3G12       N/A
$$

HIZ016-230700-
KAHOOLAWE-

CITY           SKY/WX    TMP DP  RH WIND       PRES   REMARKS
KAHOOLAWE*     NOT AVBL
HAKIOAWA*        N/A     72  69  90 MISG      30.39R
HONOKANAIA*      N/A     77  68  73 NE14G22   29.87R
KANELOA*         N/A     72  68  88 E12G22    30.01
KEALIALALO*    NOT AVBL
LUA MAKIKA*    NOT AVBL
$$

HIZ014>015-230700-
LANAI-

CITY           SKY/WX    TMP DP  RH WIND       PRES   REMARKS
LANAI CITY     CLOUDY    72  66  81 NE16G23   30.00R
LANAI 1*       NOT AVBL
$$

HIZ017>028-230700-
MAUI-

CITY           SKY/WX    TMP DP  RH WIND       PRES   REMARKS
KAHULUI        CLEAR     77  68  73 NE14      29.95R
KAPALUA-W MAUI NOT AVBL
HANA AIRPORT   MOCLDY    72  68  88 CALM      30.01R
HANA*            N/A     75 N/A N/A S3          N/A
HALEAKALA SUMM   N/A     48   9  20 NE24        N/A
MAALAEA BAY*     N/A     77 N/A N/A N17G25      N/A
HALEAKALA*     NOT AVBL
KAUPO GAP*     NOT AVBL
KULA 1*          N/A     52  52  99 E2          N/A
$$

HIZ023>026-230700-
BIG ISLAND OF HAWAII COAST AND LOWER SLOPES-

CITY           SKY/WX    TMP DP  RH WIND       PRES   REMARKS
KAILUA KONA    CLOUDY    81  68  65 W6        29.92R
HILO           MOCLDY    76  70  82 N6        29.96R
HONOKAA*         N/A     70 N/A N/A VRB1        N/A
KAWAIHAE MWT*    N/A     81 N/A N/A W7          N/A
KAWAIHAE*        N/A     81 N/A N/A SW7       29.93R
SOUTH POINT*     N/A     73 N/A N/A N12G20      N/A
UPOLU AIRPORT* NOT AVBL
KAMUELA*       CLEAR     64  61  88 NE16      30.06R
HAKALAU*         N/A     51  51  98 W2          N/A
KALOKO-HONOKO*   N/A     75  72  88 E2        29.92
PALI 2*          N/A     64  59  82 S16G24      N/A
KEALAKOMO*       N/A     79  66  65 N14G24      N/A
KAUPULEHU*     NOT AVBL
KAPAPALA*        N/A     64  63  95 NW2G10      N/A
LOWER KAHUKU*    N/A     64  64 100 CALM        N/A
PUHE CS*         N/A     79  66  65 W2          N/A
PUHO CS*         N/A     77  70  78 NE3G10      N/A
PTA KEAMUKU*   NOT AVBL
WAIKOLOA*      NOT AVBL
$$

HIZ027>028-230700-
BIG ISLAND OF HAWAII INTERIOR AND SUMMMITS-

CITY           SKY/WX    TMP DP  RH WIND       PRES   REMARKS
BRADSHAW FIELD MOCLDY    55  54  94 SE3       30.26S
MK VISITOR CEN   N/A     45  39  81 N3          N/A
MAUNA KEA*       N/A     45 -20   6 CALM        N/A
MAUNA LOA*       N/A     52   3  14 MISG        N/A
MAUNA LOA 1*   NOT AVBL
PTA KIPUKA*      N/A     57  57 100 NW3         N/A
PTA RANGE 17*    N/A     70  68  94 SW3         N/A
PTA WEST*        N/A     61  59  94 SW3G9       N/A
NENE CABIN*      N/A     52  52 100 E5          N/A
AHUMOA*        NOT AVBL
PTA PORTABLE*  NOT AVBL
PUU MALI*        N/A     54  41  62 E6G14       N/A
$$

HIC003-230700-
NORTHWEST ISLANDS-

CITY           SKY/WX    TMP DP  RH WIND       PRES   REMARKS
MIDWAY ISLAND  MOCLDY    77  64  65 E14       30.10R
MIDWAY NOS*      N/A     75 N/A N/A MISG      30.09S
FRENCH FRIGATE NOT AVBL
$$

PHZ110>124-180-230700-
BUOY REPORTS

STATION/POSITION TIME  TEMP    WIND        PRES    WAVE   SWELL
                       AIR SEA DIR/SP/G            HT/PER HT/DIR
                 (UTC) (F)     (DEG/KT/KT) (MB)    (FT/S) (FT/D)
BUOY 51001       0610   79 81   70/ 12/ 16 1016.0
BUOY 51101       0550   79 80   60/ 12/ 14 1016.3R   5/14   5/160
BUOY 51100       NOT AVBL
BUOY 51002       0610   78 79   70/ 10/ 14 1012.6
BUOY 51003       0550   79 81   60/ 10/ 12 1013.3R   5/14   5/120
BUOY 51004       0550      79  100/  8/ 10 1013.3R   6/15   7/160
BARBERS PT BUOY  NOT AVBL
WAIMEA BAY BUOY  0602      79                N/A     3/ 8
KAILUA BAY BUOY  0604      80                N/A     6/ 8   2/130
LANAI BUOY       NOT AVBL
BARBERS PT 2     NOT AVBL
PAUWELA MAUI     0609      79                N/A     5/ 8   2/130
HILO             0557      79                N/A     5/15   3/130
KANEOHE BAY BUOY 0555      80                N/A     4/ 8
HANALEI KAUAI    0552      80                N/A     4/ 8
KAHULUI HARBOR   0600   78 80   40/ 12/ 15 1014.5
HONOLULU HARBOR  0600   79 81   60/  3/  8 1015.1
KILO NALU        NOT AVBL
HILO HARBOR      0600   76 79  320/  8/  9 1014.3
MOKUOLOE         0536   79 83   60/ 13/ 14 1014.6R
NAWILIWILI       0600   78      40/  9/ 13 1015.1
WHOTS BUOY       NOT AVBL
BUOY 51028       NOT AVBL
$$

......................KEY........................................
  SKY/WX - SKY CONDITIONS/PRESENT WEATHER
  TMP    - TEMPERATURE IN FAHRENHEIT
  DWPT   - DEWPOINT IN FAHRENHEIT
  RH     - RELATIVE HUMIDITY IN PERCENT
  WIND   - DIRECTION AND SPEED /MPH FOR ISLANDS...KTS FOR BUOYS/
  PRES   - MEAN SEA LEVEL PRESSURE IN INCHES OF HG
  VSB    - VISIBILITY IN MILES
  HX     - HEAT INDEX
  WCI    - WIND CHILL INDEX
  VRB    - VARIABLE WIND DIRECTION
  N/A    - NOT AVAILABLE



USA.gov is the U.S. government's official web portal to all federal, state and local government web resources and services.